Regional Weather Roundup
Issued by NWS Mobile, AL

Home | Current Version | Previous Version | Text Only | Print | Product List | Glossary On
Versions: 1 2 3 4 5 6 7 8 9 10 11 12 13 14 15 16 17 18 19 20 21 22 23 24 25 26 27
000
ASUS44 KMOB 251112
RWRMOB
REGIONAL WEATHER ROUNDUP
NATIONAL WEATHER SERVICE MOBILE AL
600 AM CDT WED MAY 25 2016

NOTE: "FAIR" INDICATES FEW OR NO CLOUDS BELOW 12,000 FEET WITH NO
      SIGNIFICANT WEATHER AND/OR OBSTRUCTIONS TO VISIBILITY.

  * THESE STATIONS ARE PART OF THE UNIVERSITY OF SOUTH ALABAMA
    MESONET AND ARE NOT UNDER NWS OR FAA QUALITY CONTROL.

ALZ061>064-251200-
COASTAL ALABAMA

CITY           SKY/WX    TMP DP  RH WIND       PRES   REMARKS
MOBILE REG APT PTCLDY    65  65 100 SE6       30.11F
BROOKLEY FIELD CLEAR     66  66 100 CALM      30.13F
USA CAMPUS*    NOT AVBL
DOG RIVER*     NOT AVBL


CITY           SKY/WX    TMP DP  RH WIND       PRES   REMARKS
MOUNT VERNON*  NOT AVBL
SARALAND*      NOT AVBL
BAY MINETTE*   NOT AVBL
LOXLEY*        NOT AVBL
ROBERTSDALE*   NOT AVBL
FAIRHOPE*      NOT AVBL
ELBERTA*       NOT AVBL
FOLEY*         NOT AVBL
GRAND BAY*     NOT AVBL
DAUPHIN ISLND* NOT AVBL
BON SCOUR NWR* NOT AVBL
GULF SHORES    FOG       60  60 100 CALM      30.14R VSB 3/4

$$

ALZ051>060-251200-
INTERIOR SOUTHWEST AND SOUTH CENTRAL ALABAMA

CITY           SKY/WX    TMP DP  RH WIND       PRES   REMARKS
GREENVILLE     CLOUDY    59  55  87 CALM      30.14R
EVERGREEN      CLOUDY    58  56  93 S3        30.14F
CASTLEBERRY*   NOT AVBL
ATMORE*        NOT AVBL
DIXIE*         NOT AVBL
ANDALUSIA/OPP  CLEAR     64  59  83 CALM      30.15R
ANDALUSIA*     NOT AVBL
FLORALA APT    CLEAR     59  56  89 CALM      30.17R
FLORALA*       NOT AVBL

$$

FLZ001>006-251200-
WESTERN FLORIDA PANHANDLE

CITY           SKY/WX    TMP DP  RH WIND       PRES   REMARKS
PENSACOLA      CLEAR     65  62  90 CALM      30.15R
NAS PENSACOLA  NOT AVBL
MILTON         PTCLDY    59  59 100 CALM      30.15R
WHTNG S FIELD  CLEAR     61  58  90 CALM      30.15R


CITY           SKY/WX    TMP DP  RH WIND       PRES   REMARKS
WALNUT HILL*   NOT AVBL
JAY*           NOT AVBL
DUKE FIELD     CLEAR     58  57  94 CALM      30.14R FOG
CRESTVIEW      CLEAR     57  55  93 CALM      30.16R FOG
VALPARAISO     PTCLDY    62  59  89 N2        30.15R
DESTIN         CLEAR     67  65  93 CALM      30.15R

$$

MSZ076-079-251200-
INTERIOR SOUTHEAST MISSISSIPPI

CITY           SKY/WX    TMP DP  RH WIND       PRES   REMARKS
LEAKESVILLE*   NOT AVBL
AGRICOLA*      NOT AVBL

$$

MARINE OBSERVATIONS

STATION/POSITION TIME  TEMP    WIND        PRES    WAVE
                       AIR SEA DIR/SP/G            HT/PER
                 (UTC) (F)     (DEG/KT/KT) (MB)    (FT/S)
PASCAGOULA       1000   72     350/  3/  3 1019.5R
PETIT BOIS ISLND 1000   75     150/  4/  5 1019.9R
GRAND BAY        0900   77     170/  6     1021.0S
KATRINA CUT      1000   76     230/  2     1020.3R
CEDAR POINT      1000   76     230/  3     1019.6R
E DAUPHIN ISLAND 1000   76      CALM  /  1 1019.4R
MIDDLE BAY LIGHT 1000   76     310/  2     1020.0R
USCG MOBILE BAY  1006   69 79  350/  4/  5 1020.5R
STATE DOCKS      1006   69                 1019.9R
MEAHER PARK      1000   67     360/  3     1020.0R
WEEKS BAY        0900   63                   N/A
FORT MORGAN      1000   76      CALM  /  1 1019.3R
12 S ORANGE BCH  1050   77 78  130/  4/  4 1020.0R   1/ 4
PENSACOLA BAY    1006      80  360/  3/  5 1020.3R
64 S DAUPHIN ISL 1000   77 77  180/  6/  6 1019.0S

$$

SELECTED LOCATIONS ACROSS THE REGION

CITY           SKY/WX    TMP DP  RH WIND       PRES   REMARKS
NEW ORLEANS    PTCLDY    76  72  87 SE7       30.09S
GULFPORT       CLEAR     70  67  90 CALM      30.09F
PASCAGOULA AP  PTCLDY    60  59  96 CALM      30.10F
PASCAGOULA*    NOT AVBL
HATTIESBURG    CLOUDY    62  60  93 CALM      30.12R
LAUREL         PTCLDY    63  59  88 CALM      30.13R
MERIDIAN       CLOUDY    61  59  93 CALM      30.13R
JACKSON        CLOUDY    68  65  90 S3        30.10R
MONTGOMERY     CLEAR     62  58  86 CALM      30.15R
TROY           CLEAR     59  57  93 CALM      30.17R
KINSTON*       NOT AVBL
GENEVA*        NOT AVBL
ASHFORD*       NOT AVBL
DOTHAN         CLEAR     64  58  80 N5        30.20R
PANAMA CITY    CLEAR     63  59  87 CALM      30.15R

$$





USA.gov is the U.S. government's official web portal to all federal, state and local government web resources and services.